Station BISM2 - 8571421 - Bishops Head, MD Image indicating link to RSS feed of recent meteorological observations for station BISM2


Conditions at BISM2 as of
(2:30 pm EDT)
1830 GMT on 04/15/2024:
     

Click on the graph icon in the table below to see a time series plot of the last five days of that observation.

5-day plot - Wind Direction Wind Direction (WDIR):SSE ( 150 deg true )
5-day plot - Wind Speed Wind Speed (WSPD): 5.1 kts
5-day plot - Wind Gust Wind Gust (GST): 7.0 kts
5-day plot - Atmospheric Pressure Atmospheric Pressure (PRES):29.84 in
5-day plot - Air Temperature Air Temperature (ATMP): 69.6 °F
5-day plot - Water Temperature Water Temperature (WTMP): 66.9 °F
5-day plot - Wind Speed at 10 Meters Wind Speed at 10 meters (WSPD10M): 5.8 kts
5-day plot - Wind Speed at 20 Meters Wind Speed at 20 meters (WSPD20M): 5.8 kts
5-day plot -  Wind Speed, Wind Gust and Atmospheric Pressure Combined plot of Wind Speed, Gust, and Air Pressure
NOS Water Level Observation Network Water Level
Previous observations
TIME
(EDT)
5-day plot - Wind Direction
WDIR
 
5-day plot - Wind Speed
WSPD
kts
5-day plot - Wind Gust
GST
kts
5-day plot - Wave Height
WVHT
ft
5-day plot - Dominant Wave Period
DPD
sec
5-day plot - Average Wave Period
APD
sec
5-day plot - Mean Wave Direction
MWD
 
5-day plot - Atmospheric Pressure
PRES
in
5-day plot - Pressure Tendency
PTDY
in
5-day plot - Air Temperature
ATMP
°F
5-day plot - Water Temperature
WTMP
°F
5-day plot - Dew Point
DEWP
°F
5-day plot - Salinity
SAL
psu
5-day plot - Visibility
VIS
nmi
5-day plot - Tide (above MLLW)
TIDE
ft
2024-04-15 02:24 pm SE 7.0 7.0----29.83- 70.7 66.6----
2024-04-15 02:18 pmSSE 4.1-----29.84- 73.8 66.2----
2024-04-15 02:12 pm S 1.9 1.9----29.84- 73.6 65.7----
2024-04-15 02:06 pm S 1.9 1.9----29.84- 73.2 65.3----
2024-04-15 02:00 pm S 1.0 1.9----29.84-0.04 73.0 65.1----
2024-04-15 01:54 pm S 1.9 1.9----29.85- 72.5 64.8----
2024-04-15 01:48 pm S 1.9 4.1----29.85- 72.5 64.6----
2024-04-15 01:42 pm SW 1.9 2.9----29.85- 73.2 64.4----
2024-04-15 01:36 pmWSW 2.9 4.1----29.85- 74.5 64.2----
2024-04-15 01:30 pm W 4.1 5.1----29.85- 74.7 64.0----
2024-04-15 01:24 pmWNW 5.1 5.1----29.85- 74.5 63.9----
2024-04-15 01:18 pmWNW 5.1 5.1----29.85- 73.2 63.7----
2024-04-15 01:12 pmWNW 5.1 5.1----29.85- 70.7 63.5----
2024-04-15 01:06 pm W 5.1 5.1----29.86- 68.4 63.1----
2024-04-15 01:00 pm W 4.1 4.1----29.86-0.03 68.2 63.0----
2024-04-15 12:54 pmWSW 4.1 4.1----29.86- 68.7 62.8----
2024-04-15 12:48 pm W 4.1 4.1----29.86- 69.3 62.4----
2024-04-15 12:42 pm W 4.1 4.1----29.86- 68.2 62.1----
2024-04-15 12:36 pm W 4.1 5.1----29.86- 68.0 61.9----
2024-04-15 12:30 pmWSW 5.1 5.1----29.86- 68.5 61.3----
2024-04-15 12:24 pmWSW 5.1 6.0----29.86- 68.4 61.2----
2024-04-15 12:18 pmWSW 5.1 6.0----29.86- 68.2 61.3----
2024-04-15 12:12 pm SW 5.1 6.0----29.87- 67.6 61.5----
2024-04-15 12:06 pm SW 5.1 5.1----29.87- 66.6 61.3----
2024-04-15 12:00 pmWSW 4.1 5.1----29.87+0.00 66.2 61.2----
2024-04-15 11:54 amWSW 5.1 5.1----29.87- 66.0 60.8----
2024-04-15 11:48 am SW 4.1 5.1----29.88- 65.7 60.6----
2024-04-15 11:42 amWSW 5.1 6.0----29.88- 65.7 60.3----
2024-04-15 11:36 am SW 5.1 5.1----29.88- 65.5 60.3----
2024-04-15 11:30 am SW 5.1 5.1----29.88- 65.1 60.1----
2024-04-15 11:24 amWSW 5.1 6.0----29.88- 65.1 60.1----
2024-04-15 11:18 am W 6.0 6.0----29.88- 66.0 60.1----
2024-04-15 11:12 am W 6.0 6.0----29.88- 66.0 60.1----
2024-04-15 11:06 am W 5.1 6.0----29.88- 65.7 59.9----
2024-04-15 11:00 am W 5.1 6.0----29.88+0.02 64.0 59.9----
2024-04-15 10:54 am W 6.0 7.0----29.89- 64.8 59.9----
2024-04-15 10:48 am W 5.1 6.0----29.89- 63.5 59.9----
2024-04-15 10:42 am W 5.1 5.1----29.89- 63.7 59.9----
2024-04-15 10:36 am W 5.1 6.0----29.89- 63.5 59.7----
2024-04-15 10:30 am W 6.0 6.0----29.89-- 59.7----
2024-04-15 10:24 am W 6.0 7.0----29.89-- 59.5----
2024-04-15 10:18 am W 6.0 6.0----29.89- 62.6 59.5----
2024-04-15 10:12 am W 5.1-----29.89- 62.2 59.5----
2024-04-15 10:06 amWSW 4.1 5.1----29.89- 62.1 59.5----
2024-04-15 10:00 amWSW 4.1 5.1----29.89+0.05 62.4 59.5----
2024-04-15 09:54 amWSW 4.1 5.1----29.89- 62.4 59.4----
2024-04-15 09:48 amWSW 4.1 5.1----29.88- 62.6 59.4----
2024-04-15 09:42 am W 4.1 4.1----29.88- 62.8 59.2----
2024-04-15 09:36 am W 4.1 4.1----29.88- 63.0 59.2----
2024-04-15 09:30 amWSW 4.1 6.0----29.88- 63.0 59.2----
2024-04-15 09:24 amWSW 6.0 7.0----29.88- 63.1 59.2----
2024-04-15 09:18 amWSW 7.0 7.0----29.88- 63.1 59.2----
2024-04-15 09:12 amWSW 7.0 8.0----29.87- 63.7 59.0----
2024-04-15 09:06 amWSW 7.0 8.9----29.87- 64.6 59.0----
2024-04-15 09:00 amWSW 8.0 8.9----29.87+0.05 64.9 59.0----
2024-04-15 08:54 amWSW 8.0 9.9----29.87- 65.3 59.0----
2024-04-15 08:48 am SW 9.9 11.1----29.86- 65.3 59.0----
2024-04-15 08:42 am SW 8.9 11.1----29.86- 64.8 59.0----
2024-04-15 08:36 am SW 9.9 11.1----29.86- 64.6 59.0----
2024-04-15 08:30 amWSW 8.9 11.1----29.86- 64.4 58.8----
2024-04-15 08:24 am SW 9.9 12.0----29.86- 64.4 58.8----
2024-04-15 08:18 am SW 11.1 11.1----29.86- 64.6 58.8----
2024-04-15 08:12 am SW 9.9 11.1----29.86- 64.6 58.8----
2024-04-15 08:06 am SW 11.1 12.0----29.86- 64.6 58.8----
2024-04-15 08:00 am SW 11.1 11.1----29.86+0.04 64.6 58.8----
2024-04-15 07:54 am SW 11.1 11.1----29.86- 64.4 58.8----
2024-04-15 07:48 am SW 11.1 11.1----29.86- 64.2 58.8----
2024-04-15 07:42 am SW 9.9 12.0----29.85- 64.6 58.8----
2024-04-15 07:36 am SW 12.0 14.0----29.85- 64.8 58.8----
2024-04-15 07:30 am SW 14.0 15.0----29.85- 65.3 58.8----
2024-04-15 07:24 am SW 13.0 14.0----29.85- 65.5 58.6----
2024-04-15 07:18 am SW 11.1 13.0----29.84- 65.5 58.6----
2024-04-15 07:12 am SW 11.1 13.0----29.84- 64.8 58.6----
2024-04-15 07:06 am SW 12.0 12.0----29.83- 64.2 58.5----
2024-04-15 07:00 am SW 11.1 12.0----29.84+0.03 64.4 58.5----
2024-04-15 06:54 amSSW 11.1 12.0----29.83- 64.2 58.6----
2024-04-15 06:48 amSSW 9.9 11.1----29.83- 64.2 58.6----
2024-04-15 06:42 amSSW 9.9 9.9----29.83- 64.2 58.8----
2024-04-15 06:36 am SW 9.9 11.1----29.83- 64.4 58.6----
2024-04-15 06:30 am SW 9.9 12.0----29.83- 64.2 58.5----
2024-04-15 06:24 amSSW 11.1 13.0----29.83- 64.2 58.6----
2024-04-15 06:18 amSSW 12.0 12.0----29.83- 64.4 58.8----
2024-04-15 06:12 am SW 12.0 12.0----29.83- 63.9 58.8----
2024-04-15 06:06 am SW 11.1 11.1----29.83- 63.3 58.8----
2024-04-15 06:00 amSSW 11.1 11.1----29.82+0.06 63.5 58.8----
2024-04-15 05:54 amSSW 8.9 9.9----29.82- 64.0 58.8----
2024-04-15 05:48 amSSW 8.9 9.9----29.82- 63.9 58.8----
2024-04-15 05:42 amSSW 9.9 9.9----29.82- 63.9 58.8----
2024-04-15 05:36 amSSW 8.0 8.0----29.82- 64.2 58.8----
2024-04-15 05:30 amSSW 7.0 8.0----29.82- 64.2 58.8----
2024-04-15 05:24 amSSW 7.0 7.0----29.82- 65.1 58.8----
2024-04-15 05:18 amSSW 7.0 7.0----29.82- 65.5 58.8----
2024-04-15 05:12 amSSW 7.0 8.0----29.81- 66.4 58.8----
2024-04-15 05:06 amSSW 5.1 5.1----29.82- 66.2 58.8----
2024-04-15 05:00 am S 2.9 2.9----29.82+0.05 64.8 58.8----
2024-04-15 04:54 am S 2.9 5.1----29.82- 65.7 58.8----
2024-04-15 04:48 am S 2.9-----29.82- 64.9 58.8----
2024-04-15 04:42 am- 0.0 6.0----29.82- 65.5 58.8----
2024-04-15 04:36 am S 5.1 6.0----29.81- 63.9 58.8----
2024-04-15 04:30 am SE 2.9 4.1----29.81- 63.3 58.8----
2024-04-15 04:24 amSSE 4.1 6.0----29.81- 64.8 58.8----
2024-04-15 04:18 am S 5.1 5.1----29.80- 64.9 58.8----
2024-04-15 04:12 amSSE 4.1 5.1----29.81- 64.9 58.8----
2024-04-15 04:06 amSSE 2.9 4.1----29.81- 65.3 58.8----
2024-04-15 04:00 am SE 2.9 7.0----29.81+0.03 64.8 58.8----
2024-04-15 03:54 amNNE 6.0 7.0----29.82- 65.3 58.8----
2024-04-15 03:48 amWSW 1.9 7.0----29.81- 65.3 59.0----
2024-04-15 03:42 am N 6.0 8.0----29.82- 64.8 59.0----
2024-04-15 03:36 amWNW 6.0 12.0----29.81- 65.5 59.0----
2024-04-15 03:30 amWNW 12.0 19.0----29.81- 66.0 59.0----
2024-04-15 03:24 am NW 12.0 21.0----29.81- 66.4 59.2----
2024-04-15 03:18 am W 11.1 15.9----29.79- 64.6 59.4----
2024-04-15 03:12 am NW 9.9 21.0----29.79- 65.1 59.7----
2024-04-15 03:06 am SW 19.0 21.0----29.76- 66.2 59.7----
2024-04-15 03:00 am SW 19.0 21.0----29.76-0.02 66.2 59.9----
2024-04-15 02:54 am SW 18.1 22.0----29.76- 66.2 60.1----
2024-04-15 02:48 am SW 18.1 22.0----29.76- 66.4 60.3----
2024-04-15 02:42 am SW 19.0 22.0----29.76- 66.2 60.3----
2024-04-15 02:36 am SW 20.0 22.0----29.76- 66.4 60.4----
2024-04-15 02:30 am SW 19.0 21.0----29.76- 66.2 60.4----
2024-04-15 02:24 am SW 19.0 22.0----29.77- 66.2 60.4----
2024-04-15 02:18 am SW 19.0 22.0----29.77- 66.4 60.6----
2024-04-15 02:12 am SW 19.0 22.9----29.77- 66.6 60.8----
2024-04-15 02:06 am SW 20.0 22.0----29.77- 66.9 60.8----
2024-04-15 02:00 am SW 17.1 20.0----29.77-0.01 66.2 61.0----
2024-04-15 01:54 am SW 17.1 20.0----29.78- 66.4 61.2----
2024-04-15 01:48 am SW 17.1 20.0----29.78- 66.4 61.2----
2024-04-15 01:42 am SW 15.9 19.0----29.78- 66.2 61.3----
2024-04-15 01:36 am SW 15.9 19.0----29.78- 66.6 61.3----
2024-04-15 01:30 am SW 17.1 19.0----29.78- 66.7 61.3----
2024-04-15 01:24 am SW 17.1 20.0----29.78- 66.6 61.5----
2024-04-15 01:18 am SW 17.1 19.0----29.78- 66.9 61.3----
2024-04-15 01:12 am SW 17.1 19.0----29.78- 67.1 61.3----
2024-04-15 01:06 am SW 17.1 20.0----29.78- 67.3 61.3----
2024-04-15 01:00 amSSW 18.1 20.0----29.78-0.02 67.6 61.3----
2024-04-15 12:54 amSSW 18.1 19.0----29.78- 67.5 61.2----
2024-04-15 12:48 amSSW 15.9 19.0----29.78- 66.6 61.0----
2024-04-15 12:42 amSSW 17.1 20.0----29.78- 66.9 61.0----
2024-04-15 12:36 amSSW 18.1 20.0----29.78- 67.5 61.0----
2024-04-15 12:30 amSSW 15.9 19.0----29.78- 66.7 60.8----
2024-04-15 12:24 amSSW 15.9 18.1----29.78- 66.0 60.8----
2024-04-15 12:18 amSSW 15.0 17.1----29.78- 65.7 60.6----
2024-04-15 12:12 amSSW 14.0 15.0----29.78- 65.3 60.6----
2024-04-15 12:06 amSSW 14.0 15.0----29.78- 65.7 60.4----
2024-04-15 12:00 amSSW 14.0 15.9----29.78+0.01 65.5 60.3----
2024-04-14 11:54 pmSSW 14.0 15.0----29.78- 65.5 60.1----
2024-04-14 11:48 pmSSW 14.0 15.0----29.78- 65.7 60.3----
2024-04-14 11:42 pmSSW 15.0 15.9----29.78- 65.8 60.3----
2024-04-14 11:36 pmSSW 13.0 15.0----29.78- 65.5 60.6----
2024-04-14 11:30 pm S 13.0 14.0----29.78- 65.7 60.4----
2024-04-14 11:24 pm S 12.0 13.0----29.79- 65.5 60.3----
2024-04-14 11:18 pm S 11.1 12.0----29.79- 64.9 60.3----
2024-04-14 11:12 pm S 11.1 13.0----29.79- 64.6 60.3----
2024-04-14 11:06 pm S 12.0 14.0----29.78- 64.4 60.3----
2024-04-14 11:00 pm S 12.0 14.0----29.78+0.03 64.4 60.3----
2024-04-14 10:54 pm S 13.0 14.0----29.79- 64.4 60.3----
2024-04-14 10:48 pm S 13.0 15.0----29.78- 64.6 60.3----
2024-04-14 10:42 pm S 13.0 15.0----29.79- 64.6 60.1----
2024-04-14 10:36 pm S 13.0 15.0----29.79- 64.8 60.1----
2024-04-14 10:30 pm S 13.0 15.9----29.79- 64.8 60.3----
2024-04-14 10:24 pm S 13.0 15.0----29.79- 64.9 60.3----
2024-04-14 10:18 pm S 13.0 15.0----29.80- 65.1 60.4----
2024-04-14 10:12 pmSSW 14.0 15.9----29.80- 65.3 60.4----
2024-04-14 10:06 pm S 14.0 17.1----29.80- 65.3 60.4----
2024-04-14 10:00 pmSSW 14.0 17.1----29.80+0.04 65.5 60.3----
2024-04-14 09:54 pmSSW 15.0 17.1----29.80- 65.8 60.3----
2024-04-14 09:48 pmSSW 15.0 18.1----29.80- 66.2 60.1----
2024-04-14 09:42 pm S 14.0 17.1----29.80- 66.4 60.1----
2024-04-14 09:36 pm S 15.0 17.1----29.80- 66.6 60.3----
2024-04-14 09:30 pm S 15.0 17.1----29.79- 66.4 60.3----
2024-04-14 09:24 pm S 15.0 19.0----29.79- 66.4 60.3----
2024-04-14 09:18 pm S 17.1 19.0----29.79- 67.1 60.3----
2024-04-14 09:12 pm S 15.9 18.1----29.78- 67.1 60.3----
2024-04-14 09:06 pm S 15.9 19.0----29.78- 67.1 60.3----
2024-04-14 09:00 pm S 17.1 19.0----29.77-0.03 66.9 60.3----
2024-04-14 08:54 pm S 17.1 21.0----29.76- 67.3 60.3----
2024-04-14 08:48 pm S 18.1 21.0----29.76-- 60.3----
2024-04-14 08:42 pm S 17.1 20.0----29.76-- 60.3----
2024-04-14 08:36 pm S 17.1 20.0----29.76-- 60.3----
2024-04-14 08:30 pm-------29.76- 66.7 60.3----
2024-04-14 08:24 pm-------29.76- 66.4 60.1----
2024-04-14 08:18 pm S 18.1 20.0------ 67.1 60.3----
2024-04-14 08:12 pm S 18.1 22.0------ 67.3 60.1----
2024-04-14 08:06 pm S 19.0 22.9------ 67.5 60.1----
2024-04-14 08:00 pm S 19.0 21.0----29.75-0.06 67.5 60.4----
2024-04-14 07:54 pm S 18.1 21.0----29.75- 66.7 60.3----
2024-04-14 07:48 pm S 19.0 22.0----29.76- 66.6 60.4----
2024-04-14 07:42 pm S 20.0 24.1----29.75- 67.1 60.4----
2024-04-14 07:36 pm S 20.0 22.9----29.75- 66.9 60.1----
2024-04-14 07:30 pm S 20.0 24.1----29.75- 67.1 60.1----
2024-04-14 07:24 pm S 20.0 22.9----29.75- 66.7 60.3----
2024-04-14 07:00 pm S 21.0 25.1----29.76-0.08- 61.9----
2024-04-14 06:54 pm S 22.0 25.1----29.77-- 62.8----
2024-04-14 06:48 pm S 22.0 28.0----29.76- 67.1 63.5----
2024-04-14 06:42 pm S 22.9 26.0----29.77- 67.1 63.7----
2024-04-14 06:36 pm S 22.9 27.0----29.77- 66.9 63.1----
2024-04-14 06:30 pm S 21.0 24.1----29.78- 66.6 62.2----
2024-04-14 06:24 pm S 21.0 22.9----29.78- 66.7 62.6----
2024-04-14 06:18 pm S 19.0 22.0----29.79- 66.7 63.0----
2024-04-14 06:12 pm S 20.0 22.9----29.80- 67.1 63.1----
2024-04-14 06:06 pm S 21.0 22.9----29.80- 67.3 63.7----
2024-04-14 06:00 pm S 20.0 24.1----29.80-0.08 66.6 64.4----
2024-04-14 05:54 pm S 21.0 26.0----29.79- 66.6 64.4----
2024-04-14 05:48 pm S 21.0 25.1----29.80-- 64.4----
2024-04-14 05:42 pm S 21.0 28.0----29.80-- 64.4----
2024-04-14 05:36 pm S 22.9 27.0----29.80-- 64.4----
2024-04-14 05:30 pm S 22.0 26.0----29.80-- 64.4----
2024-04-14 05:24 pm S 22.0 28.0----29.81-- 64.4----
2024-04-14 05:18 pm S 22.9 26.0----29.81- 68.2 64.4----
2024-04-14 05:12 pm S 22.0 27.0----29.81- 68.0 64.6----
2024-04-14 05:06 pm S 22.9 28.0----29.81- 68.0 64.6----
2024-04-14 05:00 pm S 24.1 28.9----29.81-0.11 68.2 64.6----
2024-04-14 04:54 pm S 24.1 28.9----29.82- 68.2 64.8----
2024-04-14 04:48 pm S 25.1 28.9----29.82- 68.0 64.6----
2024-04-14 04:42 pm S 25.1 31.1----29.82- 68.2 64.6----
2024-04-14 04:36 pm S 22.9 28.0----29.83- 67.6 64.6----
2024-04-14 04:30 pm S 25.1 29.9----29.83- 68.2 64.8----
2024-04-14 04:24 pm S 24.1 31.1----29.83- 67.6 64.8----
2024-04-14 04:18 pm S 26.0 32.1----29.83- 68.0 64.9----
2024-04-14 04:12 pm S 25.1 28.0----29.84- 68.0 64.9----
2024-04-14 04:06 pm S 24.1 27.0----29.84- 67.8 64.9----
2024-04-14 04:00 pm S 22.9 28.9----29.84-0.12 67.6 64.9----
2024-04-14 03:54 pm S 24.1 28.9----29.84- 67.8 64.9----
2024-04-14 03:48 pm S 24.1 28.0----29.85- 67.6 64.8----
2024-04-14 03:42 pm S 24.1 31.1----29.85- 67.6 64.8----
2024-04-14 03:36 pm S 25.1 28.9----29.85- 67.5 64.6----
2024-04-14 03:30 pm S 26.0 31.1----29.86- 67.5 64.4----
2024-04-14 03:24 pm S 22.9 29.9----29.87- 67.3 64.4----
2024-04-14 03:18 pm S 24.1 29.9----29.87- 66.9 64.4----
2024-04-14 03:12 pm S 22.9 31.1----29.87- 66.7 64.4----
2024-04-14 03:06 pm S 25.1 28.9----29.87- 67.1 64.4----
2024-04-14 03:00 pm S 25.1 28.9----29.88-0.12------
2024-04-14 02:54 pm S 25.1 27.0----29.88-------